Tracking 32938 objects as of 13-Jan-2026
HD Live streaming from Space Station
objects crossing your sky now

STARLINK 1036

Track STARLINK 1036 now!
10-day predictions
STARLINK 1036 is classified as:


NORAD ID: 44741
Int'l Code: 2019-074AE
Perigee: 477.1 km
Apogee: 479.4 km
Inclination: 53.1 °
Period: 94.0 minutes
Semi major axis: 6849 km
RCS: Unknown
Launch date: November 11, 2019
Source: United States (US)
Launch site: AIR FORCE EASTERN TEST RANGE (AFETR)
Your satellite tracking list
Your tracking list is empty




NASA's NSSDC Master Catalog

Two Line Element Set (TLE):
1 44741U 19074AE  26013.33334491  .01700834  00000-0  49687-1 0  9991
2 44741  53.0537  93.7853 0001705  84.1441 345.8993 15.31582020  5794
Source of the keplerian elements: AFSPC